Regional Weather Roundup
Issued by NWS

Home | Current Version | Previous Version | Graphics & Text | Print | Product List | Glossary On
Versions: 1 2 3 4 5 6 7 8 9 10 11 12 13 14 15 16 17 18 19 20 21 22 23 24 25 26 27 28 29 30 31 32 33 34 35 36 37 38 39 40 41 42 43 44 45 46 47 48 49 50
000
ASUS43 KLOT 232306
RWRIL

ILLINOIS REGIONAL WEATHER ROUNDUP
NATIONAL WEATHER SERVICE CHICAGO/ROMEOVILLE IL
500 PM CST SUN NOV 23 2014

NOTE: "FAIR" INDICATES FEW OR NO CLOUDS BELOW 12,000 FEET WITH NO
SIGNIFICANT WEATHER AND/OR OBSTRUCTIONS TO VISIBILITY.

* THESE STATIONS ARE NOT UNDER NWS QUALITY CONTROL. THEY ALSO MAY NOT
  REPORT WEATHER SUCH AS PRECIPITATION OR FOG.

ILZ001-002-007-009-015-016-024-240000-
NORTHWEST ILLINOIS

CITY           SKY/WX    TMP DP  RH WIND       PRES   REMARKS
MOLINE         LGT RAIN  52  50  93 SE7       29.32F FOG
STERLING*      CLOUDY    50  46  87 SE9       29.35F
SAVANNA*       DRIZZLE   50  49  93 SE9       29.35F
$$

ILZ003-004-008-010-011-017-018-240000-
NORTH CENTRAL ILLINOIS

CITY           SKY/WX    TMP DP  RH WIND       PRES   REMARKS
ROCKFORD       LGT RAIN  49  47  93 SE12      29.41F FOG
FREEPORT*      DRIZZLE   48  47  97 SE9       29.39F
ROCHELLE*      LGT RAIN  48  48  98 SE12      29.39F
DE KALB*       CLOUDY    48  47  97 SE9       29.40F
PERU*          RAIN      50  49  95 SE10      29.37F
$$

ILZ005-006-012>014-019>023-240000-
NORTHEAST ILLINOIS

CITY           SKY/WX    TMP DP  RH WIND       PRES   REMARKS
CHICAGO-OHARE  LGT RAIN  50  49  96 SE9       29.41F FOG
CHICAGO-MIDWAY LGT RAIN  52  50  93 SE10      29.42F
AURORA         LGT RAIN  51  48  89 SE8       29.40F FOG
LANSING*       RAIN      51  50  98 SE12      29.43F
JOLIET*        RAIN      50  49  97 SE3       29.40F
WAUKEGAN       LGT RAIN  46  45  96 SE9       29.42F FOG
DUPAGE AIRPORT RAIN      51  49  92 SE7       29.40F FOG
KANKAKEE*      RAIN      50  49  98 SE8       29.40F
WHEELING       LGT RAIN  50  48  93 VRB6      29.44F FOG
MORRIS*        RAIN      51  51 100 SE8       29.38F
ROMEOVILLE*    LGT RAIN  50  50 100 SE7       29.40F
NORTHERLY ISL    N/A     43  42  97 S1          N/A
$$

LMZ740>746-240000-
SOUTHERN LAKE MICHIGAN

STATION/POSITION SKY/WX   TEMP    WIND        PRES    VSBY  WAVE
                          AIR SEA DIR/SP/G                  HT/PER
                          (F)     (DEG/KT/KT) (MB)    (MI)  (FT/S)
SOUTHERN BUOY              46 42  130/ 14/ 14  998.1F         2/ 4
WAUKEGAN HARBOR            43     170/  7/  8   N/A
HARRISON CRIB              46     120/ 17/ 18   N/A
BURNHAM HARBOR             43     180/  1/  4   N/A
CALUMET HARBOR             50     130/  8/ 11  995.6F
MICHIGAN CITY              51     120/ 11/ 15   N/A
$$

ILZ025>027-034>036-040-047-049-050-058-095>099-240000-
WEST-CENTRAL ILLINOIS

CITY           SKY/WX    TMP DP  RH WIND       PRES   REMARKS
QUINCY         LGT RAIN  53  52  96 S3        29.31F FOG
GALESBURG*     DRIZZLE   51  50  97 SE6       29.32F
MACOMB*        LGT RAIN  52  52 100 SE7       29.34F
JACKSONVILLE*  LGT RAIN  53  51  94 SE5       29.32F
PITTSFIELD*    CLOUDY    53  51  94 SE3       29.32F
$$

ILZ028>032-037-038-041>044-048-051>054-059>061-240000-
CENTRAL ILLINOIS

CITY           SKY/WX    TMP DP  RH WIND       PRES   REMARKS
PONTIAC        HVY RAIN  51  51  99 SE10      29.37F
BLOOMINGTON    LGT RAIN  51  50  97 SE14      29.35F FOG
DECATUR        RAIN      51  32  48 SE10      29.35F
PEORIA         LGT RAIN  52  48  86 SE5       29.34F FOG
LACON*         LGT RAIN  49  48  94 SE3       29.35F
LINCOLN*       RAIN      51  50  95 S7        29.34F
SPRINGFIELD    LGT RAIN  52  51  97 SE7       29.34F
TAYLORVILLE    LGT RAIN  50  48  93 SE7       29.33F
$$

ILZ033-039-045-046-055>057-062-063-240000-
EAST-CENTRAL ILLINOIS

CITY           SKY/WX    TMP DP  RH WIND       PRES   REMARKS
CHAMPAIGN      RAIN      51  51 100 SE12      29.37F FOG
DANVILLE*      HVY RAIN  50  50  99 E9        29.37F
RANTOUL*       RAIN      52  51  97 SE12      29.37F
MATTOON        RAIN      51  50  96 SE9       29.35F
PARIS*         RAIN      52  52 100 E6        29.39F
$$

ILZ079-100>102-240000-
SOUTHWEST ILLINOIS

CITY           SKY/WX    TMP DP  RH WIND       PRES   REMARKS
ALTON          RAIN      52  52 100 SE8       29.33F FOG
BELLEVILLE     LGT RAIN  53  53 100 SE3       29.32F
CAHOKIA*       LGT RAIN  54  53  97 SE6       29.31F FOG
SPARTA*        RAIN      52  51  98 CALM      29.33F
$$

ILZ064>066-069>071-074>076-080>082-084>086-088>090-092>094-240000-
SOUTH-CENTRAL ILLINOIS

CITY           SKY/WX    TMP DP  RH WIND       PRES   REMARKS
CARBONDALE     RAIN      53  52  96 E3        29.32F FOG
CAIRO*         RAIN      57  54  91 W5        29.31F
EFFINGHAM*     CLOUDY    52  49  91 E8        29.35F
MARION         HVY RAIN  55  54  94 CALM      29.33F
MT. VERNON     CLOUDY    54  48  82 E5        29.34F
CENTRALIA*     RAIN      52  50  93 E6        29.32F
SALEM*         RAIN      54  52  93 SE5       29.34F
METROPOLIS*    LGT RAIN  56  56 100 SE5       29.29F
$$

ILZ067-068-072-073-078-083-087-091-240000-
SOUTHEAST ILLINOIS

CITY           SKY/WX    TMP DP  RH WIND       PRES   REMARKS
LAWRENCEVILLE  RAIN      55  54  96 SE12      29.37F FOG
FLORA*         RAIN      52  51  99 E3        29.34F
FAIRFIELD*     RAIN      54  54  99 E5        29.33F
HARRISBURG*    HVY RAIN  55  55 100 E6        29.32F
ROBINSON*      RAIN      53  53  99 SE7       29.38F
CARMI*         HVY RAIN  57  56  99 E12       29.32F
$$

ABBREVIATIONS USED IN REMARKS
   TC - TEMPERATURE IN CELSIUS
  WCI - WIND CHILL INDEX
   HX - HEAT INDEX
  VSB - VISIBILITY
$$




USA.gov is the U.S. government's official web portal to all federal, state and local government web resources and services.